QPF
0.00 0.00 0.00 0.00 0.00 0.00 0.00 0.00 0.00 0.00 0.00 0.00 0.00 0.00 0.00 0.00 0.00 0.00 0.00 0.00 0.00 0.00 0.00 0.00 0.00 0.00 0.00 0.00 0.00 0.00 0.00 0.00 0.00 0.00 0.00 0.00 0.00 0.00 0.00 0.00 0.00 0.00 0.00 0.00
0.00 0.01 0.01 0.01 0.01 0.01 0.00 0.00 0.00 0.00 0.00 0.00 0.00 0.00 0.00 0.00 0.00 0.00 0.00 0.00 0.00 0.00 0.00 0.00 0.00 0.00 0.00 0.00 0.00 0.00 0.00 0.00 0.00 0.00 0.00 0.00 0.00 0.00 0.00 0.00 0.00 0.00 0.00 0.00
0.00 0.00 0.00 0.00 0.01 0.00 0.00 0.00 0.00 0.00 0.00 0.00 0.00 0.00 0.00 0.00 0.00 0.00 0.00 0.00 0.00 0.00 0.00 0.00 0.00 0.00 0.00 0.00 0.00 0.00 0.00 0.00 0.00 0.00 0.00 0.00 0.00 0.00 0.00 0.00 0.00 0.00 0.00 0.00
0.00 0.00 0.00 0.00 0.00 0.01 0.01 0.00 0.00 0.00 0.00 0.00 0.00 0.00 0.00 0.00 0.00 0.00 0.00 0.00 0.00 0.00 0.00 0.00 0.00 0.00 0.00 0.00 0.00 0.00 0.00 0.00 0.00 0.00 0.00 0.00 0.00 0.00 0.00 0.00 0.00 0.00 0.00 0.00
0.00 0.00 0.00 0.00 0.01 0.01 0.01 0.00 0.00 0.00 0.00 0.00 0.00 0.00 0.00 0.00 0.00 0.00 0.00 0.00 0.00 0.00 0.00 0.00 0.00 0.00 0.00 0.00 0.00 0.00 0.00 0.00 0.00 0.00 0.00 0.00 0.00 0.00 0.00 0.01 0.00 0.00 0.00 0.01
0.00 0.01 0.02 0.00 0.00 0.00 0.00 0.00 0.00 0.00 0.00 0.00 0.00 0.00 0.00 0.00 0.00 0.00 0.00 0.00 0.00 0.00 0.00 0.00 0.00 0.00 0.00 0.00 0.00 0.00 0.00 0.00 0.00 0.00 0.00 0.00 0.00 0.00 0.00 0.01 0.01 0.00 0.01 0.01
0.00 0.01 0.01 0.01 0.00 0.00 0.00 0.00 0.00 0.00 0.00 0.00 0.00 0.00 0.00 0.00 0.00 0.00 0.00 0.00 0.00 0.00 0.00 0.00 0.00 0.00 0.00 0.00 0.00 0.00 0.00 0.00 0.00 0.00 0.00 0.00 0.01 0.01 0.01 0.01 0.01 0.01 0.01 0.01
0.00 0.01 0.01 0.00 0.00 0.00 0.00 0.00 0.00 0.00 0.00 0.00 0.00 0.00 0.00 0.00 0.00 0.00 0.00 0.00 0.00 0.00 0.00 0.00 0.00 0.00 0.00 0.00 0.00 0.00 0.00 0.00 0.00 0.00 0.00 0.00 0.00 0.01 0.01 0.02 0.02 0.01 0.01 0.01
0.00 0.00 0.00 0.00 0.00 0.00 0.00 0.00 0.00 0.00 0.00 0.00 0.00 0.00 0.00 0.00 0.00 0.00 0.00 0.00 0.00 0.00 0.00 0.00 0.00 0.00 0.00 0.00 0.00 0.00 0.00 0.00 0.00 0.00 0.00 0.01 0.01 0.01 0.01 0.02 0.02 0.01 0.01 0.01
0.00 0.00 0.00 0.00 0.00 0.00 0.00 0.00 0.00 0.00 0.00 0.00 0.00 0.00 0.00 0.00 0.00 0.00 0.00 0.00 0.00 0.00 0.00 0.00 0.00 0.00 0.00 0.00 0.00 0.00 0.00 0.00 0.00 0.00 0.00 0.01 0.01 0.02 0.02 0.02 0.02 0.02 0.01 0.01
0.00 0.00 0.00 0.00 0.00 0.00 0.00 0.00 0.00 0.00 0.00 0.00 0.00 0.00 0.00 0.00 0.00 0.00 0.00 0.00 0.00 0.00 0.00 0.00 0.00 0.00 0.00 0.00 0.00 0.00 0.00 0.00 0.00 0.00 0.00 0.01 0.01 0.02 0.02 0.02 0.02 0.01 0.01 0.01
0.00 0.00 0.00 0.00 0.00 0.00 0.00 0.00 0.00 0.00 0.00 0.00 0.00 0.00 0.00 0.00 0.00 0.00 0.00 0.00 0.00 0.00 0.00 0.00 0.00 0.00 0.00 0.00 0.00 0.00 0.00 0.00 0.00 0.00 0.01 0.01 0.01 0.01 0.02 0.01 0.01 0.01 0.01 0.01
0.00 0.00 0.00 0.00 0.00 0.00 0.00 0.00 0.00 0.00 0.00 0.00 0.00 0.00 0.00 0.00 0.00 0.00 0.00 0.00 0.00 0.00 0.00 0.00 0.00 0.00 0.00 0.00 0.00 0.00 0.00 0.00 0.00 0.00 0.00 0.01 0.01 0.02 0.02 0.01 0.02 0.02 0.02 0.03
0.00 0.00 0.00 0.00 0.00 0.00 0.00 0.00 0.00 0.00 0.00 0.00 0.00 0.00 0.00 0.00 0.00 0.00 0.00 0.00 0.00 0.00 0.00 0.00 0.00 0.00 0.00 0.00 0.00 0.00 0.00 0.00 0.00 0.00 0.00 0.01 0.02 0.02 0.02 0.02 0.02 0.03 0.03 0.03
0.00 0.00 0.00 0.00 0.00 0.00 0.00 0.00 0.00 0.00 0.00 0.00 0.00 0.00 0.00 0.00 0.00 0.00 0.00 0.00 0.00 0.00 0.00 0.00 0.00 0.00 0.00 0.00 0.00 0.00 0.00 0.00 0.00 0.00 0.00 0.01 0.02 0.02 0.03 0.03 0.02 0.02 0.03 0.02
0.00 0.00 0.00 0.00 0.00 0.00 0.00 0.00 0.00 0.00 0.00 0.00 0.00 0.00 0.00 0.00 0.00 0.00 0.00 0.00 0.00 0.00 0.00 0.00 0.00 0.00 0.00 0.00 0.00 0.00 0.00 0.00 0.00 0.00 0.00 0.01 0.02 0.02 0.03 0.02 0.02 0.02 0.03 0.03
0.00 0.00 0.00 0.00 0.00 0.00 0.00 0.00 0.00 0.00 0.00 0.00 0.00 0.00 0.00 0.00 0.00 0.00 0.00 0.00 0.00 0.00 0.00 0.00 0.00 0.00 0.00 0.00 0.00 0.00 0.00 0.00 0.00 0.00 0.01 0.01 0.02 0.02 0.03 0.02 0.02 0.02 0.02 0.02
0.00 0.00 0.00 0.00 0.00 0.00 0.00 0.00 0.00 0.00 0.01 0.01 0.01 0.01 0.01 0.01 0.00 0.00 0.00 0.00 0.00 0.00 0.00 0.00 0.00 0.00 0.00 0.00 0.00 0.00 0.00 0.00 0.00 0.00 0.01 0.02 0.01 0.02 0.02 0.02 0.02 0.01 0.01 0.01
0.01 0.01 0.01 0.01 0.01 0.01 0.01 0.00 0.00 0.01 0.01 0.01 0.01 0.01 0.01 0.00 0.00 0.00 0.00 0.00 0.00 0.00 0.00 0.00 0.00 0.00 0.00 0.00 0.00 0.00 0.00 0.00 0.00 0.01 0.01 0.02 0.03 0.03 0.02 0.02 0.01 0.01 0.01 0.01
0.01 0.01 0.01 0.01 0.01 0.00 0.00 0.00 0.01 0.01 0.01 0.01 0.01 0.01 0.01 0.00 0.00 0.00 0.00 0.00 0.00 0.00 0.00 0.00 0.00 0.00 0.00 0.00 0.00 0.00 0.00 0.00 0.00 0.00 0.01 0.02 0.03 0.04 0.03 0.01 0.01 0.02 0.01 0.01
0.01 0.01 0.00 0.00 0.00 0.00 0.00 0.00 0.00 0.00 0.00 0.01 0.00 0.00 0.00 0.00 0.00 0.00 0.00 0.00 0.01 0.01 0.00 0.00 0.00 0.00 0.00 0.00 0.00 0.00 0.00 0.00 0.00 0.00 0.00 0.02 0.03 0.03 0.03 0.02 0.02 0.02 0.01 0.01
0.00 0.00 0.00 0.00 0.00 0.00 0.00 0.00 0.00 0.00 0.00 0.00 0.00 0.00 0.00 0.00 0.00 0.00 0.00 0.00 0.01 0.01 0.01 0.01 0.01 0.00 0.00 0.00 0.00 0.00 0.00 0.00 0.00 0.00 0.00 0.01 0.02 0.03 0.03 0.04 0.03 0.03 0.03 0.02
0.00 0.00 0.00 0.00 0.00 0.00 0.00 0.00 0.00 0.00 0.00 0.00 0.00 0.00 0.00 0.00 0.01 0.01 0.01 0.01 0.02 0.03 0.03 0.02 0.01 0.01 0.00 0.00 0.00 0.00 0.00 0.00 0.00 0.00 0.00 0.00 0.01 0.02 0.03 0.03 0.04 0.05 0.04 0.03
0.00 0.00 0.00 0.00 0.00 0.00 0.00 0.00 0.00 0.00 0.00 0.00 0.00 0.00 0.00 0.01 0.01 0.02 0.03 0.04 0.05 0.06 0.06 0.03 0.01 0.01 0.00 0.00 0.00 0.00 0.00 0.00 0.00 0.00 0.00 0.00 0.01 0.03 0.03 0.03 0.04 0.04 0.05 0.04
0.00 0.00 0.00 0.00 0.00 0.00 0.00 0.00 0.00 0.00 0.00 0.00 0.01 0.01 0.01 0.02 0.04 0.07 0.08 0.09 0.09 0.08 0.06 0.03 0.01 0.01 0.00 0.00 0.00 0.00 0.00 0.00 0.00 0.00 0.00 0.00 0.01 0.02 0.03 0.04 0.04 0.04 0.05 0.05
0.00 0.00 0.00 0.00 0.00 0.00 0.00 0.00 0.00 0.00 0.01 0.01 0.02 0.03 0.05 0.07 0.10 0.11 0.11 0.11 0.09 0.07 0.05 0.03 0.02 0.01 0.00 0.00 0.00 0.00 0.00 0.00 0.00 0.00 0.00 0.00 0.01 0.01 0.03 0.03 0.04 0.03 0.04 0.05
0.00 0.00 0.00 0.00 0.00 0.00 0.00 0.00 0.00 0.00 0.01 0.02 0.04 0.05 0.08 0.11 0.12 0.13 0.13 0.11 0.08 0.06 0.06 0.05 0.03 0.01 0.00 0.00 0.00 0.00 0.00 0.00 0.00 0.00 0.00 0.00 0.01 0.01 0.02 0.03 0.03 0.02 0.02 0.02
MSLP
1013.07 1013.10 1013.19 1013.36 1013.60 1013.90 1014.21 1014.49 1014.72 1014.85 1014.89 1014.85 1014.75 1014.63 1014.50 1014.40 1014.33 1014.28 1014.25 1014.21 1014.14 1014.04 1013.89 1013.71 1013.50 1013.29 1013.08 1012.88 1012.70 1012.54 1012.37 1012.20 1012.01 1011.79 1011.55 1011.30 1011.04 1010.78 1010.53 1010.29 1010.06 1009.84 1009.61 1009.36
1013.13 1013.15 1013.16 1013.18 1013.24 1013.33 1013.45 1013.58 1013.72 1013.83 1013.93 1014.01 1014.07 1014.11 1014.15 1014.17 1014.17 1014.15 1014.09 1013.98 1013.83 1013.64 1013.43 1013.20 1012.97 1012.77 1012.59 1012.44 1012.31 1012.18 1012.03 1011.86 1011.65 1011.39 1011.10 1010.79 1010.47 1010.17 1009.88 1009.62 1009.37 1009.15 1008.92 1008.69
1013.25 1013.23 1013.15 1013.05 1012.95 1012.87 1012.83 1012.83 1012.89 1012.98 1013.12 1013.28 1013.45 1013.63 1013.78 1013.89 1013.95 1013.94 1013.86 1013.70 1013.49 1013.23 1012.96 1012.70 1012.47 1012.28 1012.13 1012.02 1011.93 1011.83 1011.69 1011.52 1011.28 1010.99 1010.65 1010.29 1009.92 1009.57 1009.24 1008.96 1008.70 1008.46 1008.24 1008.00
1013.45 1013.36 1013.19 1012.97 1012.73 1012.51 1012.35 1012.26 1012.24 1012.32 1012.47 1012.68 1012.92 1013.18 1013.40 1013.57 1013.66 1013.66 1013.56 1013.36 1013.11 1012.81 1012.51 1012.24 1012.01 1011.84 1011.72 1011.64 1011.57 1011.49 1011.37 1011.18 1010.93 1010.60 1010.23 1009.82 1009.41 1009.01 1008.65 1008.33 1008.05 1007.80 1007.56 1007.32
1013.67 1013.49 1013.21 1012.88 1012.54 1012.22 1011.96 1011.79 1011.73 1011.78 1011.93 1012.16 1012.44 1012.74 1013.00 1013.20 1013.30 1013.30 1013.19 1012.98 1012.70 1012.39 1012.08 1011.81 1011.60 1011.45 1011.35 1011.30 1011.25 1011.19 1011.06 1010.87 1010.60 1010.24 1009.83 1009.39 1008.93 1008.50 1008.10 1007.75 1007.44 1007.16 1006.90 1006.64
1013.77 1013.47 1013.09 1012.66 1012.24 1011.85 1011.54 1011.33 1011.24 1011.28 1011.43 1011.66 1011.96 1012.27 1012.55 1012.76 1012.87 1012.87 1012.76 1012.56 1012.28 1011.98 1011.69 1011.44 1011.24 1011.11 1011.04 1011.01 1010.97 1010.91 1010.78 1010.58 1010.28 1009.90 1009.46 1008.98 1008.48 1008.01 1007.57 1007.18 1006.84 1006.53 1006.25 1005.96
1013.58 1013.15 1012.68 1012.18 1011.71 1011.29 1010.97 1010.75 1010.66 1010.70 1010.86 1011.11 1011.41 1011.73 1012.02 1012.24 1012.37 1012.39 1012.30 1012.12 1011.87 1011.60 1011.34 1011.12 1010.95 1010.84 1010.78 1010.75 1010.72 1010.65 1010.51 1010.28 1009.97 1009.56 1009.09 1008.57 1008.04 1007.52 1007.04 1006.61 1006.23 1005.89 1005.58 1005.28
1012.98 1012.44 1011.89 1011.35 1010.86 1010.45 1010.14 1009.96 1009.91 1009.98 1010.17 1010.44 1010.77 1011.11 1011.41 1011.66 1011.82 1011.87 1011.82 1011.68 1011.49 1011.26 1011.04 1010.85 1010.71 1010.61 1010.56 1010.53 1010.48 1010.39 1010.23 1009.98 1009.64 1009.20 1008.69 1008.13 1007.56 1007.01 1006.49 1006.02 1005.60 1005.23 1004.91 1004.60
1011.94 1011.31 1010.70 1010.15 1009.67 1009.30 1009.05 1008.93 1008.94 1009.08 1009.32 1009.64 1010.00 1010.38 1010.73 1011.02 1011.22 1011.33 1011.34 1011.26 1011.13 1010.96 1010.79 1010.63 1010.51 1010.42 1010.37 1010.32 1010.25 1010.13 1009.94 1009.65 1009.27 1008.80 1008.26 1007.67 1007.06 1006.46 1005.90 1005.40 1004.96 1004.57 1004.24 1003.95
1010.55 1009.86 1009.23 1008.68 1008.24 1007.93 1007.76 1007.72 1007.81 1008.02 1008.33 1008.71 1009.14 1009.57 1009.98 1010.32 1010.59 1010.77 1010.86 1010.86 1010.79 1010.69 1010.56 1010.44 1010.34 1010.25 1010.18 1010.11 1010.00 1009.85 1009.62 1009.30 1008.88 1008.37 1007.80 1007.17 1006.53 1005.90 1005.31 1004.78 1004.32 1003.94 1003.62 1003.36
1009.01 1008.28 1007.65 1007.13 1006.74 1006.50 1006.41 1006.45 1006.63 1006.91 1007.29 1007.74 1008.23 1008.72 1009.19 1009.60 1009.94 1010.20 1010.37 1010.45 1010.46 1010.41 1010.34 1010.25 1010.16 1010.07 1009.98 1009.88 1009.74 1009.54 1009.27 1008.92 1008.47 1007.93 1007.33 1006.67 1006.01 1005.35 1004.74 1004.20 1003.74 1003.37 1003.08 1002.86
1007.57 1006.84 1006.22 1005.74 1005.40 1005.22 1005.18 1005.29 1005.53 1005.87 1006.30 1006.80 1007.33 1007.87 1008.39 1008.86 1009.27 1009.60 1009.84 1010.00 1010.08 1010.10 1010.08 1010.02 1009.95 1009.86 1009.75 1009.62 1009.45 1009.22 1008.92 1008.54 1008.06 1007.51 1006.88 1006.22 1005.54 1004.87 1004.26 1003.71 1003.26 1002.91 1002.65 1002.49
1006.47 1005.76 1005.17 1004.71 1004.41 1004.27 1004.27 1004.41 1004.67 1005.03 1005.48 1005.98 1006.52 1007.08 1007.62 1008.13 1008.58 1008.97 1009.27 1009.49 1009.64 1009.72 1009.74 1009.72 1009.66 1009.58 1009.47 1009.33 1009.14 1008.89 1008.57 1008.17 1007.69 1007.13 1006.50 1005.83 1005.15 1004.49 1003.88 1003.35 1002.91 1002.57 1002.35 1002.22
1005.87 1005.19 1004.63 1004.20 1003.92 1003.78 1003.78 1003.91 1004.15 1004.48 1004.89 1005.36 1005.87 1006.39 1006.92 1007.42 1007.89 1008.30 1008.64 1008.91 1009.10 1009.23 1009.30 1009.32 1009.29 1009.23 1009.13 1008.99 1008.80 1008.55 1008.23 1007.83 1007.36 1006.80 1006.19 1005.54 1004.87 1004.23 1003.63 1003.11 1002.68 1002.37 1002.16 1002.06
1005.80 1005.17 1004.64 1004.23 1003.95 1003.80 1003.76 1003.84 1004.01 1004.26 1004.59 1004.97 1005.39 1005.85 1006.31 1006.77 1007.20 1007.60 1007.96 1008.25 1008.48 1008.65 1008.77 1008.83 1008.85 1008.82 1008.75 1008.63 1008.45 1008.22 1007.91 1007.53 1007.07 1006.54 1005.95 1005.32 1004.68 1004.05 1003.48 1002.97 1002.56 1002.25 1002.05 1001.94
1006.20 1005.62 1005.13 1004.73 1004.44 1004.25 1004.16 1004.16 1004.23 1004.37 1004.57 1004.82 1005.12 1005.46 1005.82 1006.19 1006.56 1006.92 1007.25 1007.55 1007.80 1008.01 1008.17 1008.28 1008.35 1008.36 1008.33 1008.25 1008.10 1007.89 1007.61 1007.25 1006.82 1006.31 1005.75 1005.15 1004.54 1003.94 1003.38 1002.89 1002.48 1002.17 1001.96 1001.84
1006.92 1006.40 1005.94 1005.56 1005.26 1005.03 1004.87 1004.77 1004.73 1004.74 1004.80 1004.90 1005.04 1005.23 1005.46 1005.72 1005.99 1006.29 1006.58 1006.86 1007.12 1007.35 1007.55 1007.71 1007.83 1007.90 1007.91 1007.87 1007.76 1007.58 1007.33 1006.99 1006.58 1006.10 1005.57 1004.99 1004.41 1003.83 1003.30 1002.82 1002.42 1002.10 1001.87 1001.72
1007.78 1007.32 1006.90 1006.54 1006.22 1005.96 1005.74 1005.56 1005.40 1005.28 1005.19 1005.13 1005.12 1005.15 1005.23 1005.35 1005.52 1005.73 1005.96 1006.22 1006.47 1006.72 1006.96 1007.16 1007.33 1007.45 1007.52 1007.52 1007.44 1007.29 1007.06 1006.74 1006.35 1005.88 1005.36 1004.81 1004.25 1003.70 1003.18 1002.71 1002.31 1001.99 1001.74 1001.56
1008.62 1008.21 1007.84 1007.49 1007.18 1006.90 1006.62 1006.37 1006.12 1005.88 1005.65 1005.45 1005.29 1005.17 1005.11 1005.10 1005.16 1005.28 1005.45 1005.66 1005.91 1006.17 1006.43 1006.68 1006.90 1007.07 1007.17 1007.21 1007.16 1007.03 1006.81 1006.49 1006.10 1005.65 1005.14 1004.60 1004.05 1003.51 1003.01 1002.56 1002.17 1001.85 1001.58 1001.38
1009.35 1008.98 1008.64 1008.31 1008.00 1007.70 1007.40 1007.09 1006.76 1006.43 1006.10 1005.78 1005.49 1005.24 1005.04 1004.92 1004.87 1004.91 1005.01 1005.19 1005.42 1005.69 1005.98 1006.27 1006.52 1006.74 1006.89 1006.95 1006.93 1006.80 1006.58 1006.27 1005.87 1005.41 1004.90 1004.37 1003.83 1003.31 1002.83 1002.40 1002.02 1001.70 1001.44 1001.22
1009.90 1009.56 1009.24 1008.93 1008.62 1008.32 1007.99 1007.64 1007.27 1006.87 1006.45 1006.04 1005.65 1005.29 1004.99 1004.77 1004.63 1004.59 1004.64 1004.78 1005.01 1005.28 1005.59 1005.91 1006.21 1006.46 1006.65 1006.74 1006.73 1006.62 1006.40 1006.08 1005.68 1005.21 1004.70 1004.17 1003.64 1003.14 1002.68 1002.27 1001.91 1001.61 1001.36 1001.14
1010.29 1009.95 1009.64 1009.33 1009.03 1008.71 1008.37 1008.00 1007.58 1007.14 1006.67 1006.18 1005.71 1005.27 1004.89 1004.58 1004.38 1004.28 1004.28 1004.40 1004.62 1004.90 1005.23 1005.58 1005.92 1006.22 1006.44 1006.56 1006.58 1006.49 1006.27 1005.96 1005.56 1005.09 1004.58 1004.05 1003.54 1003.06 1002.62 1002.24 1001.91 1001.63 1001.40 1001.20
1010.52 1010.17 1009.85 1009.54 1009.23 1008.90 1008.54 1008.15 1007.71 1007.23 1006.72 1006.19 1005.66 1005.16 1004.71 1004.34 1004.08 1003.93 1003.91 1004.01 1004.22 1004.52 1004.87 1005.26 1005.64 1005.98 1006.25 1006.42 1006.47 1006.40 1006.21 1005.92 1005.53 1005.08 1004.58 1004.07 1003.58 1003.13 1002.72 1002.36 1002.06 1001.81 1001.60 1001.42
1010.60 1010.24 1009.90 1009.58 1009.25 1008.91 1008.54 1008.13 1007.67 1007.17 1006.63 1006.06 1005.49 1004.94 1004.45 1004.04 1003.74 1003.56 1003.51 1003.60 1003.81 1004.12 1004.50 1004.92 1005.35 1005.74 1006.06 1006.28 1006.39 1006.37 1006.23 1005.97 1005.62 1005.20 1004.74 1004.26 1003.80 1003.38 1003.00 1002.67 1002.40 1002.17 1001.98 1001.81
1010.53 1010.16 1009.81 1009.47 1009.13 1008.78 1008.40 1007.98 1007.51 1006.99 1006.43 1005.84 1005.25 1004.67 1004.15 1003.71 1003.38 1003.18 1003.11 1003.19 1003.40 1003.73 1004.14 1004.60 1005.07 1005.51 1005.89 1006.18 1006.35 1006.39 1006.31 1006.12 1005.83 1005.46 1005.05 1004.62 1004.20 1003.81 1003.46 1003.16 1002.90 1002.69 1002.50 1002.34
1010.29 1009.93 1009.58 1009.24 1008.90 1008.54 1008.16 1007.74 1007.27 1006.75 1006.18 1005.59 1004.99 1004.41 1003.87 1003.42 1003.07 1002.86 1002.78 1002.85 1003.07 1003.40 1003.83 1004.32 1004.83 1005.32 1005.76 1006.11 1006.35 1006.47 1006.47 1006.36 1006.14 1005.84 1005.49 1005.12 1004.75 1004.39 1004.07 1003.79 1003.54 1003.33 1003.14 1002.96
1009.89 1009.55 1009.21 1008.89 1008.56 1008.22 1007.86 1007.45 1006.99 1006.49 1005.95 1005.37 1004.78 1004.21 1003.69 1003.24 1002.90 1002.68 1002.60 1002.67 1002.88 1003.22 1003.66 1004.16 1004.70 1005.23 1005.71 1006.12 1006.43 1006.63 1006.70 1006.66 1006.52 1006.30 1006.02 1005.71 1005.38 1005.06 1004.76 1004.49 1004.25 1004.03 1003.83 1003.64
Thickness
5744 5752 5756 5754 5756 5755 5741 5728 5714 5714 5710 5713 5716 5716 5714 5710 5705 5699 5694 5690 5686 5679 5673 5668 5663 5658 5653 5647 5641 5635 5628 5621 5615 5610 5605 5599 5594 5590 5586 5581 5578 5574 5570 5567
5739 5752 5753 5751 5756 5756 5749 5743 5730 5721 5715 5725 5723 5719 5713 5708 5701 5695 5692 5689 5684 5679 5672 5666 5660 5655 5649 5643 5637 5631 5623 5617 5612 5606 5600 5594 5589 5585 5580 5576 5572 5568 5564 5561
5721 5735 5739 5732 5750 5753 5748 5749 5737 5721 5720 5724 5717 5713 5708 5703 5699 5696 5693 5688 5682 5676 5669 5663 5657 5652 5645 5639 5633 5626 5619 5613 5607 5601 5595 5589 5585 5580 5575 5570 5566 5562 5559 5555
5716 5718 5712 5731 5762 5762 5746 5741 5743 5733 5727 5722 5716 5711 5708 5704 5700 5696 5692 5686 5680 5672 5666 5660 5655 5648 5642 5635 5628 5621 5615 5608 5602 5596 5590 5585 5579 5574 5569 5565 5561 5557 5554 5550
5708 5706 5713 5738 5756 5755 5738 5726 5736 5729 5723 5717 5710 5705 5702 5706 5702 5695 5691 5684 5677 5671 5665 5658 5651 5645 5638 5630 5623 5616 5610 5603 5597 5591 5585 5580 5575 5570 5565 5561 5557 5553 5549 5546
5711 5705 5701 5728 5757 5763 5741 5717 5735 5731 5723 5716 5705 5691 5693 5704 5700 5695 5690 5682 5675 5669 5662 5654 5648 5641 5633 5626 5618 5611 5606 5599 5593 5587 5581 5576 5571 5566 5562 5557 5553 5549 5545 5541
5710 5704 5714 5746 5762 5757 5719 5717 5736 5733 5727 5720 5708 5702 5704 5703 5697 5692 5687 5681 5674 5666 5657 5651 5645 5637 5629 5621 5614 5609 5602 5595 5589 5583 5577 5572 5568 5563 5558 5553 5549 5544 5540 5536
5706 5700 5711 5755 5755 5738 5734 5743 5740 5734 5728 5721 5715 5712 5705 5698 5693 5688 5682 5678 5671 5661 5653 5647 5641 5633 5624 5617 5612 5606 5598 5591 5585 5579 5574 5571 5564 5559 5554 5549 5544 5540 5535 5531
5720 5723 5747 5757 5757 5758 5753 5744 5740 5734 5729 5723 5714 5708 5702 5696 5690 5685 5680 5673 5666 5657 5650 5643 5636 5629 5620 5615 5608 5601 5594 5586 5580 5576 5571 5566 5561 5556 5551 5546 5540 5536 5531 5526
5733 5740 5752 5758 5760 5760 5755 5749 5745 5739 5731 5724 5715 5708 5701 5693 5686 5680 5675 5669 5661 5653 5645 5638 5632 5625 5618 5612 5605 5597 5589 5583 5578 5573 5569 5564 5558 5553 5548 5544 5539 5533 5528 5523
5729 5741 5751 5757 5759 5758 5755 5750 5744 5738 5732 5725 5716 5708 5699 5690 5683 5677 5671 5664 5657 5649 5641 5634 5628 5621 5615 5608 5601 5593 5586 5580 5575 5570 5566 5561 5557 5552 5547 5543 5537 5531 5526 5520
5725 5740 5738 5744 5755 5757 5750 5745 5741 5735 5728 5724 5717 5708 5699 5690 5683 5675 5668 5661 5653 5645 5638 5631 5624 5618 5612 5605 5597 5589 5582 5577 5573 5568 5564 5560 5556 5553 5550 5544 5539 5533 5526 5518
5744 5751 5749 5753 5756 5755 5749 5745 5741 5735 5729 5721 5715 5708 5699 5688 5681 5673 5665 5657 5650 5643 5635 5628 5621 5614 5608 5601 5594 5586 5579 5574 5570 5566 5563 5559 5555 5551 5548 5546 5541 5534 5527 5520
5754 5754 5749 5749 5747 5749 5747 5745 5740 5733 5728 5722 5714 5706 5696 5686 5677 5669 5661 5655 5647 5640 5632 5625 5618 5611 5605 5597 5590 5583 5577 5573 5569 5565 5561 5558 5554 5550 5546 5542 5539 5534 5528 5521
5750 5750 5744 5744 5744 5742 5741 5736 5728 5722 5718 5713 5708 5700 5691 5681 5672 5664 5658 5651 5642 5634 5627 5620 5613 5607 5600 5593 5587 5580 5574 5570 5566 5563 5561 5557 5554 5550 5547 5543 5538 5533 5528 5522
5738 5737 5735 5731 5728 5727 5725 5722 5716 5712 5710 5705 5699 5692 5685 5677 5668 5659 5652 5645 5636 5628 5622 5616 5609 5603 5596 5589 5583 5577 5572 5569 5566 5562 5560 5557 5554 5551 5547 5543 5539 5534 5529 5524
5716 5711 5710 5708 5709 5708 5708 5707 5706 5704 5700 5696 5692 5686 5677 5667 5658 5651 5644 5639 5633 5627 5620 5612 5605 5598 5592 5586 5579 5574 5568 5565 5564 5561 5558 5556 5554 5551 5548 5544 5540 5536 5532 5527
5695 5692 5691 5691 5691 5691 5693 5694 5694 5693 5689 5687 5682 5674 5665 5657 5650 5646 5641 5634 5626 5620 5614 5607 5600 5593 5587 5582 5575 5569 5565 5561 5559 5558 5557 5555 5553 5551 5548 5545 5541 5538 5534 5530
5677 5676 5676 5676 5675 5675 5675 5676 5676 5677 5676 5673 5667 5660 5655 5650 5646 5641 5635 5626 5619 5612 5607 5601 5595 5587 5582 5576 5571 5565 5561 5558 5557 5556 5555 5554 5553 5551 5548 5545 5542 5539 5536 5533
5659 5659 5659 5659 5660 5658 5657 5657 5658 5657 5656 5653 5649 5646 5642 5639 5636 5632 5626 5619 5614 5608 5602 5595 5588 5581 5575 5570 5566 5561 5558 5556 5555 5553 5553 5551 5551 5549 5548 5545 5543 5540 5538 5535
5640 5641 5642 5641 5641 5640 5639 5639 5638 5637 5637 5636 5633 5631 5630 5629 5627 5622 5616 5610 5608 5601 5595 5589 5580 5573 5568 5564 5561 5557 5555 5553 5552 5550 5549 5548 5548 5547 5546 5544 5543 5541 5539 5536
5620 5621 5623 5623 5623 5622 5623 5622 5621 5621 5620 5620 5620 5619 5618 5617 5615 5612 5609 5605 5601 5593 5586 5580 5573 5568 5563 5559 5555 5552 5551 5550 5547 5546 5545 5544 5544 5544 5543 5543 5541 5540 5538 5536
5600 5601 5602 5602 5602 5602 5604 5605 5605 5605 5605 5605 5605 5606 5606 5607 5605 5601 5599 5596 5590 5584 5578 5572 5567 5563 5558 5553 5550 5547 5546 5544 5542 5540 5540 5540 5541 5541 5540 5540 5539 5539 5538 5536
5581 5582 5583 5584 5584 5584 5585 5588 5589 5590 5591 5592 5594 5595 5595 5595 5595 5595 5593 5589 5583 5577 5571 5566 5561 5557 5552 5547 5544 5542 5540 5538 5536 5535 5535 5536 5537 5537 5537 5537 5537 5537 5536 5536
5564 5564 5565 5566 5566 5567 5568 5570 5571 5573 5575 5576 5579 5581 5583 5584 5585 5585 5582 5578 5574 5568 5562 5556 5553 5549 5544 5540 5537 5535 5532 5531 5530 5529 5529 5530 5532 5532 5532 5533 5533 5533 5533 5533
5546 5547 5549 5549 5549 5549 5550 5551 5552 5554 5556 5558 5561 5565 5568 5570 5572 5572 5569 5566 5563 5558 5552 5548 5544 5540 5536 5533 5530 5527 5525 5524 5523 5522 5522 5523 5525 5527 5528 5528 5529 5530 5529 5529
5530 5531 5531 5531 5532 5533 5533 5534 5535 5536 5538 5539 5542 5547 5551 5554 5556 5557 5556 5554 5551 5547 5544 5539 5535 5531 5528 5525 5521 5518 5517 5516 5515 5515 5515 5516 5518 5520 5522 5523 5524 5524 5524 5524